West Palm Beach, FL

4:11 AM EDT on September 30, 2016 (GMT -0400)
Palm Beach International

Weather History for KPBI - January, 2013

Change the Weather History Date:

Tuesday, January 29, 2013

  Actual Average Record
Temperature  
Mean Temperature 76 °F 66 °F  
Max Temperature 79 °F 75 °F 85 °F (1991)
Min Temperature 72 °F 57 °F 31 °F (1928)
Degree Days  
Heating Degree Days 0 2  
Month to date heating degree days 3 84  
Since 1 July heating degree days 46 155  
Cooling Degree Days 11 4  
Month to date cooling degree days 211 98  
Year to date cooling degree days 211 98  
Growing Degree Days 24 (Base 50)    
Moisture  
Dew Point 66 °F    
Average Humidity 77    
Maximum Humidity 87    
Minimum Humidity 67    
Precipitation  
Precipitation 0.02 in 0.09 in 1.94 in (1929)
Month to date precipitation 0.78 2.95  
Year to date precipitation 0.78 2.95  
Snow  
Snow 0.00 in - - ()
Month to date snowfall 0.0  
Since 1 July snowfall 0.0  
Snow Depth 0.00 in    
Sea Level Pressure  
Sea Level Pressure 30.19 in    
Wind  
Wind Speed 11 mph (SE)    
Max Wind Speed 21 mph    
Max Gust Speed 26 mph    
Visibility 10 miles    
Events Rain    
T = Trace of Precipitation, MM = Missing Value Source: NWS Daily Summary

Daily Weather History Graph

Daily Weather History Graph

Search for Another Location

Airport or City:

Trip Planner

Search our weather history database for the weather conditions in past years. The results will help you decide how hot, cold, wet, or windy it might be!

Date:

Astronomy

Jan. 29, 2013 Rise Set
Actual Time 7:06 AM EST 6:00 PM EST
Civil Twilight 6:42 AM EST 6:25 PM EST
Nautical Twilight 6:14 AM EST 6:52 PM EST
Astronomical Twilight 5:47 AM EST 7:20 PM EST
Moon 8:33 PM EST (1/29) 8:21 AM EST (1/29)
Length of Visible Light 11h 42m
Length of Day
10h 53m
Waning Gibbous, 94% of the Moon is Illuminated
Jan 29
Waning Gibbous
Feb 3
Last Quarter
Feb 10
New
Feb 17
First Quarter
Feb 25
Full

Hourly Weather History & Observations

Time (EST) Temp. Dew Point Humidity Pressure Visibility Wind Dir Wind Speed Gust Speed Precip Events Conditions
12:53 AM 73.9 °F 68.0 °F 82% 30.23 in 10.0 mi ESE 15.0 mph - N/A   Mostly Cloudy
1:53 AM 73.9 °F 64.9 °F 73% 30.21 in 10.0 mi ESE 10.4 mph - N/A   Scattered Clouds
2:53 AM 73.9 °F 66.9 °F 79% 30.20 in 10.0 mi ESE 12.7 mph - N/A   Scattered Clouds
3:36 AM 73.4 °F 66.2 °F 78% 30.19 in 10.0 mi ESE 13.8 mph - 0.00 in Rain Light Rain
3:44 AM 73.4 °F 66.2 °F 78% 30.19 in 10.0 mi ESE 15.0 mph - 0.00 in   Overcast
3:53 AM 73.9 °F 66.0 °F 76% 30.19 in 10.0 mi ESE 15.0 mph - 0.00 in   Mostly Cloudy
4:13 AM 73.4 °F 66.2 °F 78% 30.19 in 10.0 mi ESE 12.7 mph - N/A   Mostly Cloudy
4:53 AM 73.9 °F 66.9 °F 79% 30.19 in 10.0 mi ESE 11.5 mph - N/A   Overcast
5:36 AM 73.4 °F 66.2 °F 78% 30.19 in 10.0 mi East 12.7 mph - N/A   Overcast
5:53 AM 73.9 °F 66.9 °F 79% 30.19 in 10.0 mi ESE 12.7 mph - N/A   Mostly Cloudy
6:41 AM 73.4 °F 66.2 °F 78% 30.21 in 10.0 mi South 10.4 mph - 0.00 in Rain Light Rain
6:53 AM 73.0 °F 66.9 °F 81% 30.22 in 10.0 mi SSE 9.2 mph - 0.00 in Rain Light Rain
7:47 AM 71.6 °F 66.2 °F 83% 30.22 in 10.0 mi WSW 3.5 mph - 0.00 in   Mostly Cloudy
7:53 AM 73.0 °F 66.0 °F 79% 30.22 in 10.0 mi Calm Calm - 0.00 in   Mostly Cloudy
8:10 AM 73.4 °F 66.2 °F 78% 30.23 in 10.0 mi Variable 3.5 mph - N/A   Mostly Cloudy
8:53 AM 75.9 °F 66.0 °F 71% 30.23 in 10.0 mi Calm Calm - N/A   Mostly Cloudy
9:53 AM 75.9 °F 68.0 °F 76% 30.23 in 10.0 mi SE 13.8 mph - N/A   Mostly Cloudy
10:33 AM 73.4 °F 69.8 °F 88% 30.23 in 6.0 mi SE 8.1 mph - 0.00 in Rain Light Rain
10:53 AM 73.9 °F 70.0 °F 87% 30.23 in 10.0 mi SE 4.6 mph - 0.01 in Rain Light Rain
11:53 AM 73.9 °F 69.1 °F 85% 30.22 in 10.0 mi SE 11.5 mph - 0.00 in Rain Light Rain
12:53 PM 75.0 °F 68.0 °F 79% 30.18 in 10.0 mi SSE 13.8 mph 19.6 mph 0.01 in Rain Light Rain
1:53 PM 75.9 °F 66.9 °F 74% 30.15 in 10.0 mi SSE 17.3 mph 23.0 mph 0.00 in   Mostly Cloudy
2:14 PM 77.0 °F 66.2 °F 69% 30.15 in 10.0 mi SE 16.1 mph 24.2 mph N/A   Overcast
2:53 PM 78.1 °F 66.0 °F 66% 30.14 in 10.0 mi SE 16.1 mph 23.0 mph N/A   Scattered Clouds
3:53 PM 77.0 °F 66.0 °F 69% 30.14 in 10.0 mi SE 15.0 mph 25.3 mph N/A   Mostly Cloudy
4:53 PM 75.0 °F 64.9 °F 71% 30.15 in 10.0 mi SE 15.0 mph - N/A   Scattered Clouds
5:53 PM 73.9 °F 64.9 °F 73% 30.15 in 10.0 mi SE 12.7 mph - N/A   Scattered Clouds
6:53 PM 73.0 °F 66.0 °F 79% 30.14 in 10.0 mi SE 9.2 mph - N/A   Mostly Cloudy
7:53 PM 73.0 °F 64.9 °F 76% 30.16 in 10.0 mi SE 9.2 mph - N/A   Scattered Clouds
8:53 PM 73.0 °F 64.9 °F 76% 30.16 in 10.0 mi ESE 11.5 mph - N/A   Scattered Clouds
9:53 PM 73.0 °F 64.0 °F 73% 30.16 in 10.0 mi SE 9.2 mph - N/A   Scattered Clouds
10:53 PM 73.0 °F 64.9 °F 76% 30.14 in 10.0 mi SE 11.5 mph - N/A   Scattered Clouds
11:53 PM 73.0 °F 64.9 °F 76% 30.13 in 10.0 mi SE 13.8 mph - N/A   Scattered Clouds